Weather History for KLAS - October, 2012

Change the Weather History Date:

Tuesday, October 23, 2012

  Actual Average Record
Temperature  
Mean Temperature 66 °F 67 °F  
Max Temperature 73 °F 78 °F 94 °F (1959)
Min Temperature 59 °F 56 °F 37 °F (1949)
Degree Days  
Heating Degree Days 0 2  
Month to date heating degree days 8 15  
Since 1 July heating degree days 8 16  
Cooling Degree Days 1 3  
Month to date cooling degree days 223 158  
Year to date cooling degree days 3994 3535  
Growing Degree Days 16 (Base 50)    
Moisture  
Dew Point 28 °F    
Average Humidity 29    
Maximum Humidity 48    
Minimum Humidity 10    
Precipitation  
Precipitation 0.00 in 0.01 in 0.23 in (2000)
Month to date precipitation 0.94 0.18  
Year to date precipitation 4.82 3.24  
Snow  
Snow 0.00 in 0.00 in 0.00 in ()
Month to date snowfall T 0.0  
Since 1 July snowfall T 0.0  
Since 1 September snowfall T 0.0  
Snow Depth 0.00 in    
Sea Level Pressure  
Sea Level Pressure 29.73 in    
Wind  
Wind Speed 17 mph (SSW)    
Max Wind Speed 26 mph    
Max Gust Speed 35 mph    
Visibility 10 miles    
Events      
T = Trace of Precipitation, MM = Missing Value Source: NWS Daily Summary

Daily Weather History Graph

Daily Weather History Graph

Search for Another Location

Airport or City:

Trip Planner

Search our weather history database for the weather conditions in past years. The results will help you decide how hot, cold, wet, or windy it might be!

Date:

Astronomy

Oct. 23, 2012 Rise Set
Actual Time 6:55 AM PDT 5:53 PM PDT
Civil Twilight 6:29 AM PDT 6:20 PM PDT
Nautical Twilight 5:59 AM PDT 6:50 PM PDT
Astronomical Twilight 5:29 AM PDT 7:19 PM PDT
Moon 2:30 PM PDT (10/23) 1:02 AM PDT (10/23)
Length of Visible Light 11h 51m
Length of Day
10h 58m
Waxing Gibbous, 67% of the Moon is Illuminated
Oct 23
Waxing Gibbous
Oct 29
Full
Nov 6
Last Quarter
Nov 13
New
Nov 20
First Quarter

Hourly Weather History & Observations

Time (PDT) Temp. Dew Point Humidity Pressure Visibility Wind Dir Wind Speed Gust Speed Precip Events Conditions
12:56 AM 64.0 °F 42.1 °F 45% 29.72 in 10.0 mi SSW 20.7 mph 33.4 mph N/A   Partly Cloudy
1:56 AM 63.0 °F 42.1 °F 46% 29.71 in 10.0 mi SSW 21.9 mph 26.5 mph N/A   Partly Cloudy
2:56 AM 62.1 °F 42.1 °F 48% 29.70 in 10.0 mi SSW 17.3 mph 24.2 mph N/A   Clear
3:56 AM 61.0 °F 39.9 °F 46% 29.70 in 10.0 mi SSW 17.3 mph 29.9 mph N/A   Partly Cloudy
4:56 AM 60.1 °F 37.9 °F 44% 29.73 in 10.0 mi SSW 17.3 mph - N/A   Partly Cloudy
5:56 AM 60.1 °F 37.0 °F 42% 29.74 in 10.0 mi South 18.4 mph - N/A   Partly Cloudy
8:56 AM 61.0 °F 36.0 °F 39% 29.78 in 10.0 mi South 16.1 mph - N/A   Clear
9:56 AM 63.0 °F 34.0 °F 34% 29.79 in 10.0 mi South 17.3 mph - N/A   Partly Cloudy
10:56 AM 66.0 °F 28.0 °F 24% 29.78 in 10.0 mi SSW 13.8 mph 21.9 mph N/A   Partly Cloudy
11:56 AM 69.1 °F 24.1 °F 18% 29.77 in 10.0 mi South 17.3 mph 24.2 mph N/A   Partly Cloudy
12:56 PM 72.0 °F 16.0 °F 12% 29.73 in 10.0 mi SSW 23.0 mph 31.1 mph N/A   Partly Cloudy
1:56 PM 73.0 °F 17.1 °F 12% 29.72 in 10.0 mi SSW 16.1 mph 31.1 mph N/A   Partly Cloudy
2:56 PM 73.0 °F 14.0 °F 11% 29.70 in 10.0 mi SSW 17.3 mph 29.9 mph N/A   Partly Cloudy
3:56 PM 73.0 °F 14.0 °F 11% 29.70 in 10.0 mi SSW 23.0 mph 31.1 mph N/A   Scattered Clouds
4:56 PM 71.1 °F 19.0 °F 14% 29.69 in 10.0 mi SW 16.1 mph 26.5 mph N/A   Scattered Clouds
5:56 PM 69.1 °F 18.0 °F 14% 29.70 in 10.0 mi SSW 16.1 mph 25.3 mph N/A   Scattered Clouds
6:56 PM 68.0 °F 23.0 °F 18% 29.71 in 10.0 mi SSW 17.3 mph 25.3 mph N/A   Scattered Clouds
7:56 PM 66.9 °F 23.0 °F 19% 29.73 in 10.0 mi South 15.0 mph - N/A   Partly Cloudy
8:56 PM 66.0 °F 23.0 °F 20% 29.72 in 10.0 mi South 18.4 mph 26.5 mph N/A   Partly Cloudy
9:56 PM 64.9 °F 27.0 °F 24% 29.73 in 10.0 mi SSW 15.0 mph - N/A   Partly Cloudy
10:56 PM 64.0 °F 32.0 °F 30% 29.74 in 10.0 mi SW 17.3 mph 25.3 mph N/A   Partly Cloudy
11:56 PM 64.0 °F 32.0 °F 30% 29.73 in 10.0 mi SSW 16.1 mph 34.5 mph N/A   Partly Cloudy